Regional Weather Roundup
Issued by NWS

Home | Current Version | Previous Version | Graphics & Text | Print | Product List | Glossary On
Versions: 1 2 3 4 5 6 7 8 9 10 11 12 13 14 15 16 17 18 19 20 21 22 23 24 25 26 27 28 29 30 31 32 33 34 35 36 37 38 39 40 41 42 43 44 45 46 47 48 49 50
000
ASUS43 KBIS 250520
RWRND

NORTH DAKOTA REGIONAL WEATHER ROUNDUP
NATIONAL WEATHER SERVICE BISMARCK ND
1100 PM CST WED DEC 24 2014

NOTE: "FAIR" INDICATES FEW OR NO CLOUDS BELOW 12,000 FEET WITH NO
SIGNIFICANT WEATHER AND/OR OBSTRUCTIONS TO VISIBILITY.


NDZ001>003-009>011-017-250600-
NORTHWEST NORTH DAKOTA

CITY           SKY/WX    TMP DP  RH WIND       PRES   REMARKS
WILLISTON      PTCLDY    22  18  85 SW6       29.51R WCI  14
MINOT          CLEAR     28  22  78 W13       29.45R WCI  17
MINOT AFB      CLEAR     26  25  99 NW13      29.44S WCI  14
$$

NDZ018>021-031>035-040>046-250600-
SOUTHWEST NORTH DAKOTA

CITY           SKY/WX    TMP DP  RH WIND       PRES   REMARKS
BISMARCK       CLOUDY    31  29  92 NW3       29.47S
DICKINSON      CLOUDY    30  27  88 NW6       29.46S
GARRISON         N/A     27  23  85 NW9       29.46R WCI  18
HETTINGER ARPT CLOUDY    33  30  88 N8        29.48R
$$

NDZ004>008-012>016-024-026-027-054-250600-
NORTHEAST NORTH DAKOTA

CITY           SKY/WX    TMP DP  RH WIND       PRES   REMARKS
GRAND FORKS    CLOUDY    30  27  88 S8        29.41F
GRND FRKS AFB  CLOUDY    30  30  99 SW6       29.42R
DEVILS LAKE    PTCLDY    25  19  80 W12       29.42R WCI  14
$$

NDZ022-023-025-028>030-036>039-047>053-250600-
SOUTHEAST NORTH DAKOTA

CITY           SKY/WX    TMP DP  RH WIND       PRES   REMARKS
FARGO          CLOUDY    30  26  85 S13       29.47S WCI  20
JAMESTOWN      PTCLDY    28  25  88 W6        29.43S
$$




USA.gov is the U.S. government's official web portal to all federal, state and local government web resources and services.